Météo par heure à Kyshen'ky

Ce jour, 4 Août, Mercredi

Heure Température Précipitation Vent Pression Humidité
00:00 +20°C° 0 mm 2 m/s 755 mmHg 59%
01:00 +20°C° 0 mm 2 m/s 756 mmHg 59%
02:00 +19°C° 0 mm 2 m/s 756 mmHg 60%
03:00 +19°C° 0 mm 2 m/s 756 mmHg 61%
04:00 +19°C° 0 mm 2 m/s 756 mmHg 63%
05:00 +19°C° 0 mm 2 m/s 756 mmHg 64%
06:00 +22°C° 0 mm 1 m/s 756 mmHg 58%
07:00 +24°C° 0 mm 1 m/s 757 mmHg 52%
08:00 +26°C° 0 mm 1 m/s 757 mmHg 46%
09:00 +27°C° 0 mm 1 m/s 757 mmHg 42%
10:00 +28°C° 0 mm 1 m/s 757 mmHg 37%
11:00 +30°C° 0 mm 1 m/s 757 mmHg 33%
12:00 +30°C° 0 mm 1 m/s 757 mmHg 31%
13:00 +31°C° 0 mm 2 m/s 756 mmHg 30%
14:00 +31°C° 0 mm 2 m/s 756 mmHg 28%
15:00 +31°C° 0 mm 2 m/s 756 mmHg 29%
16:00 +30°C° 0 mm 2 m/s 756 mmHg 29%
17:00 +30°C° 0 mm 2 m/s 756 mmHg 30%
18:00 +28°C° 0 mm 2 m/s 756 mmHg 34%
19:00 +26°C° 0 mm 1 m/s 756 mmHg 38%
20:00 +24°C° 0 mm 1 m/s 756 mmHg 42%
21:00 +24°C° 0 mm 1 m/s 756 mmHg 43%
22:00 +23°C° 0 mm 1 m/s 756 mmHg 45%
23:00 +23°C° 0 mm 1 m/s 756 mmHg 46%

Demain, 5 Août, Jeudi

Heure Température Précipitation Vent Pression Humidité
00:00 +22°C° 0 mm 1 m/s 756 mmHg 48%
01:00 +22°C° 0 mm 1 m/s 756 mmHg 50%
02:00 +22°C° 0 mm 1 m/s 756 mmHg 52%
03:00 +21°C° 0 mm 2 m/s 756 mmHg 54%
04:00 +20°C° 0 mm 2 m/s 756 mmHg 55%
05:00 +20°C° 0 mm 2 m/s 756 mmHg 57%
06:00 +22°C° 0 mm 3 m/s 756 mmHg 52%
07:00 +26°C° 0 mm 3 m/s 755 mmHg 47%
08:00 +28°C° 0 mm 4 m/s 755 mmHg 41%
09:00 +29°C° 0 mm 4 m/s 755 mmHg 38%
10:00 +32°C° 0 mm 4 m/s 755 mmHg 35%
11:00 +33°C° 0 mm 4 m/s 755 mmHg 31%
12:00 +33°C° 0 mm 4 m/s 754 mmHg 30%
13:00 +34°C° 0 mm 4 m/s 754 mmHg 29%
14:00 +34°C° 0 mm 4 m/s 754 mmHg 28%
15:00 +34°C° 0 mm 4 m/s 753 mmHg 28%
16:00 +34°C° 0 mm 4 m/s 753 mmHg 28%
17:00 +34°C° 0 mm 4 m/s 753 mmHg 29%
18:00 +32°C° 0 mm 4 m/s 752 mmHg 34%
19:00 +29°C° 0 mm 4 m/s 752 mmHg 39%
20:00 +26°C° 0 mm 4 m/s 752 mmHg 43%
21:00 +26°C° 0 mm 4 m/s 752 mmHg 45%
22:00 +25°C° 0 mm 4 m/s 752 mmHg 47%
23:00 +23°C° 0 mm 4 m/s 751 mmHg 48%

Après-demain, 6 Août, Vendredi

Heure Température Précipitation Vent Pression Humidité
00:00 +24°C° 0 mm 3 m/s 751 mmHg 50%
01:00 +22°C° 0 mm 3 m/s 751 mmHg 52%
02:00 +22°C° 0 mm 3 m/s 751 mmHg 54%
03:00 +21°C° 0 mm 3 m/s 751 mmHg 55%
04:00 +21°C° 0 mm 3 m/s 750 mmHg 55%
05:00 +21°C° 0 mm 3 m/s 750 mmHg 56%
06:00 +25°C° 0 mm 3 m/s 750 mmHg 50%
07:00 +27°C° 0 mm 3 m/s 750 mmHg 44%
08:00 +30°C° 0 mm 4 m/s 749 mmHg 38%
09:00 +32°C° 0 mm 4 m/s 749 mmHg 34%
10:00 +34°C° 0 mm 4 m/s 749 mmHg 31%
11:00 +36°C° 0 mm 4 m/s 749 mmHg 27%
12:00 +36°C° 0 mm 4 m/s 749 mmHg 25%
13:00 +37°C° 0 mm 4 m/s 748 mmHg 24%
14:00 +38°C° 0 mm 4 m/s 748 mmHg 23%
15:00 +38°C° 0 mm 4 m/s 748 mmHg 23%
16:00 +37°C° 0 mm 4 m/s 747 mmHg 23%
17:00 +37°C° 0 mm 4 m/s 747 mmHg 24%
18:00 +34°C° 0.1 mm 4 m/s 747 mmHg 35%
19:00 +30°C° 0.1 mm 4 m/s 747 mmHg 47%
20:00 +27°C° 0.1 mm 4 m/s 747 mmHg 59%
21:00 +26°C° 0.2 mm 4 m/s 747 mmHg 62%
22:00 +25°C° 0.2 mm 3 m/s 747 mmHg 65%
23:00 +24°C° 0.2 mm 3 m/s 747 mmHg 68%

7 Août, Samedi

Heure Température Précipitation Vent Pression Humidité
00:00 +24°C° 0.4 mm 2 m/s 747 mmHg 72%
01:00 +23°C° 0.4 mm 2 m/s 747 mmHg 75%
02:00 +23°C° 0.4 mm 2 m/s 747 mmHg 79%
03:00 +21°C° 0 mm 2 m/s 747 mmHg 80%
04:00 +21°C° 0 mm 2 m/s 747 mmHg 80%
05:00 +21°C° 0 mm 2 m/s 747 mmHg 81%
06:00 +24°C° 0 mm 2 m/s 747 mmHg 73%
07:00 +26°C° 0 mm 2 m/s 748 mmHg 65%
08:00 +28°C° 0 mm 2 m/s 748 mmHg 57%
09:00 +29°C° 0 mm 3 m/s 748 mmHg 52%
10:00 +31°C° 0 mm 3 m/s 748 mmHg 47%
11:00 +34°C° 0 mm 4 m/s 748 mmHg 42%
12:00 +34°C° 0 mm 4 m/s 748 mmHg 40%
13:00 +35°C° 0 mm 5 m/s 748 mmHg 37%
14:00 +36°C° 0 mm 5 m/s 748 mmHg 35%
15:00 +35°C° 0 mm 5 m/s 749 mmHg 38%
16:00 +34°C° 0 mm 6 m/s 749 mmHg 41%
17:00 +33°C° 0 mm 6 m/s 749 mmHg 44%
18:00 +30°C° 0 mm 6 m/s 749 mmHg 50%
19:00 +28°C° 0 mm 7 m/s 750 mmHg 56%
20:00 +26°C° 0 mm 7 m/s 751 mmHg 63%
21:00 +24°C° 0.1 mm 6 m/s 751 mmHg 66%
22:00 +23°C° 0.1 mm 6 m/s 751 mmHg 69%
23:00 +22°C° 0.1 mm 5 m/s 752 mmHg 72%

8 Août, Dimanche

Heure Température Précipitation Vent Pression Humidité
00:00 +22°C° 0 mm 5 m/s 752 mmHg 74%
01:00 +21°C° 0 mm 5 m/s 752 mmHg 76%
02:00 +21°C° 0 mm 5 m/s 752 mmHg 78%
03:00 +20°C° 0 mm 5 m/s 752 mmHg 78%
04:00 +20°C° 0 mm 5 m/s 752 mmHg 79%
05:00 +20°C° 0 mm 5 m/s 753 mmHg 79%
06:00 +21°C° 0 mm 5 m/s 753 mmHg 72%
07:00 +23°C° 0 mm 6 m/s 753 mmHg 65%
08:00 +26°C° 0 mm 6 m/s 753 mmHg 58%
09:00 +28°C° 0 mm 6 m/s 753 mmHg 53%
10:00 +30°C° 0 mm 6 m/s 753 mmHg 47%
11:00 +32°C° 0 mm 6 m/s 753 mmHg 42%
12:00 +33°C° 0 mm 6 m/s 753 mmHg 40%
13:00 +34°C° 0 mm 5 m/s 753 mmHg 38%
14:00 +35°C° 0 mm 5 m/s 753 mmHg 35%
15:00 +35°C° 0 mm 5 m/s 753 mmHg 35%
16:00 +34°C° 0 mm 5 m/s 753 mmHg 36%
17:00 +34°C° 0 mm 5 m/s 753 mmHg 36%
18:00 +32°C° 0 mm 5 m/s 753 mmHg 39%
19:00 +29°C° 0 mm 5 m/s 753 mmHg 42%
20:00 +28°C° 0 mm 5 m/s 754 mmHg 45%
21:00 +27°C° 0 mm 4 m/s 754 mmHg 45%
22:00 +25°C° 0 mm 4 m/s 754 mmHg 46%
23:00 +23°C° 0 mm 4 m/s 755 mmHg 47%

9 Août, Lundi

Heure Température Précipitation Vent Pression Humidité
00:00 +24°C° 0 mm 3 m/s 755 mmHg 50%
01:00 +22°C° 0 mm 3 m/s 755 mmHg 52%
02:00 +21°C° 0 mm 3 m/s 755 mmHg 54%
03:00 +21°C° 0 mm 3 m/s 755 mmHg 56%
04:00 +21°C° 0 mm 3 m/s 755 mmHg 58%
05:00 +20°C° 0 mm 3 m/s 755 mmHg 60%
06:00 +22°C° 0 mm 3 m/s 755 mmHg 56%
07:00 +26°C° 0 mm 4 m/s 755 mmHg 51%
08:00 +28°C° 0 mm 4 m/s 755 mmHg 46%
09:00 +30°C° 0 mm 3 m/s 755 mmHg 43%
10:00 +31°C° 0 mm 3 m/s 755 mmHg 39%
11:00 +34°C° 0 mm 3 m/s 755 mmHg 36%
12:00 +35°C° 0 mm 3 m/s 755 mmHg 33%
13:00 +36°C° 0 mm 3 m/s 754 mmHg 30%
14:00 +36°C° 0 mm 4 m/s 754 mmHg 27%
15:00 +36°C° 0 mm 4 m/s 754 mmHg 26%
16:00 +35°C° 0 mm 5 m/s 754 mmHg 26%
17:00 +35°C° 0 mm 5 m/s 754 mmHg 26%
18:00 +32°C° 0 mm 5 m/s 754 mmHg 30%
19:00 +29°C° 0 mm 4 m/s 755 mmHg 35%
20:00 +26°C° 0 mm 3 m/s 755 mmHg 39%
21:00 +26°C° 0 mm 3 m/s 755 mmHg 40%
22:00 +25°C° 0 mm 3 m/s 755 mmHg 41%
23:00 +24°C° 0 mm 2 m/s 755 mmHg 42%
Voir plus

Nous avons besoin de votre consentement

Meteoprog et ses fournisseurs de services peuvent stocker et accéder à des données personnelles telles que des cookies, des identifiants d'appareils ou d'autres technologies similaires sur votre appareil et traiter ces données pour personnaliser le contenu et les publicités, ainsi que pour fournir des fonctionnalités de médias sociaux et analyser le trafic.

  • Stocker et/ou accéder à des informations sur votre appareil

    Des cookies, des identifiants d'appareils ou d'autres informations peuvent être stockés ou accessibles sur votre appareil aux fins indiquées ci-dessus.

  • Annonces et contenus personnalisés, mesure des annonces et des contenus, connaissance de l'audience et développement de produits

    Les annonces et le contenu peuvent être personnalisés en fonction d'un profil. D'autres données peuvent être ajoutées pour mieux personnaliser les annonces et le contenu. Les performances des publicités et du contenu peuvent être mesurées. Il est possible d'obtenir des informations sur le public qui a vu les publicités et le contenu. Ces données peuvent être utilisées pour développer ou améliorer l'expérience de l'utilisateur, les systèmes et les logiciels.

En cliquant sur "J'accepte", vous autorisez l'utilisation de cookies, des identifiants d'appareils, des balises web ou d'autres technologies similaires. Vos paramètres peuvent être modifiés dans le navigateur de votre appareil.

Dans certains cas, des intérêts légitimes peuvent être invoqués plutôt qu'un consentement. Vous pouvez en savoir plus à ce sujet dans notre Politique de confidentialité et de cookies.